Nome, AK

4:22 AM AKST on December 10, 2016 (GMT -0900)
Nome

Weather History for PAOM - April, 2013

Change the Weather History Date:

Wednesday, April 24, 2013

  Actual Average Record
Temperature  
Mean Temperature 32 °F 25 °F  
Max Temperature 38 °F 32 °F 47 °F (1940)
Min Temperature 26 °F 19 °F -10 °F (1966)
Degree Days  
Heating Degree Days 33 40  
Month to date heating degree days 1217 1110  
Since 1 July heating degree days 12506 12088  
Cooling Degree Days 0    
Month to date cooling degree days 0  
Year to date cooling degree days 0  
Moisture  
Dew Point 27 °F    
Average Humidity 0    
Maximum Humidity 0    
Minimum Humidity 0    
Precipitation  
Precipitation 0.04 in 0.03 in 0.44 in (1916)
Month to date precipitation 0.29 0.59  
Year to date precipitation 2.45 3.11  
Snow  
Snow 0.50 in 0.20 in 4.00 in (1916)
Month to date snowfall 4.4 6.3  
Since 1 July snowfall 54.8 71.9  
Snow Depth 15.00 in    
Sea Level Pressure  
Sea Level Pressure 30.35 in    
Wind  
Wind Speed 7 mph (WSW)    
Max Wind Speed 17 mph    
Max Gust Speed 20 mph    
Visibility 4 miles    
Events Fog , Snow    
T = Trace of Precipitation, MM = Missing Value Source: NWS Daily Summary

Daily Weather History Graph

Daily Weather History Graph

Search for Another Location

Airport or City:

Trip Planner

Search our weather history database for the weather conditions in past years. The results will help you decide how hot, cold, wet, or windy it might be!

Date:

Astronomy

Apr. 24, 2013 Rise Set
Actual Time 6:54 AM AKDT 11:07 PM AKDT
Civil Twilight 5:50 AM AKDT 12:12 AM AKDT
Nautical Twilight 3:45 AM AKDT 2:32 AM AKDT
Astronomical Twilight Sun does not rise Sun does not rise
Moon 10:18 PM AKDT (4/24) 6:29 AM AKDT (4/24)
Length of Visible Light 18h 21m
Length of Day
16h 13m
Waxing Gibbous, 99% of the Moon is Illuminated
Apr 24
Waxing Gibbous
Apr 25
Full
May 2
Last Quarter
May 9
New
May 17
First Quarter

Hourly Weather History & Observations

Time (AKDT) Temp. Windchill Dew Point Humidity Pressure Visibility Wind Dir Wind Speed Gust Speed Precip Events Conditions
12:44 AM 26.6 °F 21.2 °F 26.6 °F 100% 30.38 in 1.8 mi SW 4.6 mph - 0.00 in Snow Light Snow
12:53 AM 27.0 °F 20.5 °F 26.1 °F 96% 30.38 in 1.5 mi SW 5.8 mph - 0.00 in Snow Light Snow
1:04 AM 26.6 °F 20.0 °F 26.6 °F 100% 30.37 in 1.8 mi SW 5.8 mph - 0.00 in Snow Light Snow
1:13 AM 26.6 °F 20.0 °F 26.6 °F 100% 30.38 in 1.5 mi SW 5.8 mph - 0.00 in Snow Light Snow
1:50 AM 26.6 °F 20.0 °F 26.6 °F 100% 30.38 in 2.5 mi WSW 5.8 mph - 0.01 in Snow Light Snow
1:53 AM 27.0 °F 20.5 °F 26.1 °F 96% 30.38 in 3.0 mi SW 5.8 mph - 0.01 in Snow Light Snow
2:01 AM 26.6 °F 20.0 °F 26.6 °F 100% 30.38 in 1.8 mi SW 5.8 mph - 0.00 in Snow Light Snow
2:27 AM 26.6 °F 18.2 °F 26.6 °F 100% 30.38 in 2.0 mi WSW 8.1 mph - 0.01 in Snow Light Snow
2:35 AM 26.6 °F 18.2 °F 26.6 °F 100% 30.38 in 1.8 mi WSW 8.1 mph - 0.01 in Snow Light Snow
2:53 AM 27.0 °F 17.3 °F 26.1 °F 96% 30.38 in 2.0 mi WSW 10.4 mph - 0.01 in Snow Light Snow
3:17 AM 26.6 °F 17.5 °F 26.6 °F 100% 30.37 in 3.0 mi WSW 9.2 mph - 0.00 in Snow Light Snow
3:51 AM 26.6 °F 22.6 °F 26.6 °F 100% 30.37 in 4.0 mi West 3.5 mph - 0.00 in Snow Light Snow
3:53 AM 27.0 °F 23.0 °F 26.1 °F 96% 30.37 in 4.0 mi West 3.5 mph - 0.00 in Snow Light Snow
4:00 AM 26.6 °F 22.6 °F 26.6 °F 100% 30.36 in 4.0 mi West 3.5 mph - 0.00 in Snow Light Snow
4:53 AM 27.0 °F 18.0 °F 26.1 °F 96% 30.35 in 9.0 mi WSW 9.2 mph - 0.00 in Snow Light Snow
5:00 AM 26.6 °F 20.0 °F 26.6 °F 100% 30.35 in 9.0 mi WSW 5.8 mph - 0.00 in Snow Light Snow
5:53 AM 27.0 °F 18.0 °F 26.1 °F 96% 30.35 in 9.0 mi WSW 9.2 mph - 0.00 in Snow Light Snow
6:00 AM 26.6 °F 16.8 °F 26.6 °F 100% 30.35 in 5.0 mi WSW 10.4 mph - 0.00 in Snow Light Snow
6:53 AM 27.0 °F 18.7 °F 26.1 °F 96% 30.35 in 9.0 mi West 8.1 mph - 0.00 in   Overcast
7:45 AM 26.6 °F 19.1 °F 26.6 °F 100% 30.34 in 1.8 mi WSW 6.9 mph - N/A   Overcast
7:53 AM 27.0 °F 18.7 °F 26.1 °F 96% 30.35 in 1.8 mi WSW 8.1 mph - N/A   Overcast
8:06 AM 26.6 °F 17.5 °F 26.6 °F 100% 30.34 in 0.8 mi WSW 9.2 mph - N/A   Overcast
8:19 AM 26.6 °F 17.5 °F 26.6 °F 100% 30.34 in 0.5 mi WSW 9.2 mph - N/A Fog Light Freezing Fog
8:35 AM 26.6 °F 16.8 °F 26.6 °F 100% 30.33 in 0.2 mi WSW 10.4 mph - N/A Fog Light Freezing Fog
8:53 AM 27.0 °F 17.3 °F 27.0 °F 100% 30.33 in 0.5 mi WSW 10.4 mph - N/A Fog Light Freezing Fog
9:21 AM 26.6 °F 17.5 °F 26.6 °F 100% 30.33 in 0.8 mi WSW 9.2 mph - N/A   Mist
9:28 AM 26.6 °F 18.2 °F 26.6 °F 100% 30.33 in 1.0 mi West 8.1 mph - N/A   Mist
9:53 AM 27.0 °F 18.0 °F 27.0 °F 100% 30.33 in 2.0 mi West 9.2 mph - N/A   Overcast
10:06 AM 26.6 °F 16.8 °F 26.6 °F 100% 30.32 in 0.8 mi West 10.4 mph - N/A   Overcast
10:18 AM 26.6 °F 18.2 °F 26.6 °F 100% 30.33 in 1.0 mi West 8.1 mph - 0.00 in Snow Light Snow
10:22 AM 26.6 °F 18.2 °F 26.6 °F 100% 30.32 in 1.5 mi WSW 8.1 mph - 0.00 in Snow Light Snow
10:31 AM 26.6 °F 16.8 °F 26.6 °F 100% 30.33 in 1.5 mi West 10.4 mph - 0.00 in Snow Light Snow
10:53 AM 27.0 °F 16.1 °F 27.0 °F 100% 30.33 in 1.0 mi West 12.7 mph - 0.00 in Snow Light Snow
11:53 AM 28.0 °F 19.3 °F 27.0 °F 96% 30.33 in 1.5 mi West 9.2 mph - 0.02 in Snow Light Snow
12:04 PM 28.4 °F 24.6 °F 26.6 °F 93% 30.34 in 2.5 mi West 3.5 mph - 0.00 in Snow Light Snow
12:14 PM 28.4 °F 23.3 °F 26.6 °F 93% 30.34 in 3.0 mi West 4.6 mph - 0.00 in Snow Light Snow
12:26 PM 28.4 °F 22.2 °F 26.6 °F 93% 30.33 in 4.0 mi WSW 5.8 mph - 0.00 in Snow Light Snow
12:39 PM 28.4 °F 19.1 °F 26.6 °F 93% 30.32 in 2.5 mi West 10.4 mph - 0.00 in Snow Light Snow
12:48 PM 28.4 °F 18.5 °F 26.6 °F 93% 30.32 in 1.5 mi West 11.5 mph - 0.00 in Snow Light Snow
12:53 PM 28.0 °F 17.5 °F 27.0 °F 96% 30.32 in 1.5 mi West 12.7 mph - 0.00 in Snow Light Snow
1:02 PM 28.4 °F 18.5 °F 26.6 °F 93% 30.33 in 3.0 mi West 11.5 mph - 0.00 in Snow Light Snow
1:09 PM 28.4 °F 18.5 °F 26.6 °F 93% 30.33 in 4.0 mi West 11.5 mph - 0.00 in Snow Light Snow
1:53 PM 30.0 °F 19.5 °F 28.0 °F 92% 30.35 in 10.0 mi West 13.8 mph - 0.00 in   Overcast
2:53 PM 32.0 °F 25.6 °F 28.9 °F 88% 30.34 in 10.0 mi West 6.9 mph - N/A   Mostly Cloudy
3:53 PM 34.0 °F 29.8 °F 26.1 °F 73% 30.34 in 10.0 mi WNW 4.6 mph - N/A   Scattered Clouds
4:53 PM 36.0 °F 32.1 °F 28.0 °F 73% 30.36 in 10.0 mi NNW 4.6 mph - N/A   Scattered Clouds
5:53 PM 34.0 °F 27.2 °F 28.0 °F 79% 30.36 in 10.0 mi South 8.1 mph - N/A   Scattered Clouds
6:53 PM 34.0 °F 29.8 °F 28.0 °F 79% 30.38 in 10.0 mi WSW 4.6 mph - N/A   Scattered Clouds
7:53 PM 34.0 °F 31.0 °F 27.0 °F 75% 30.39 in 10.0 mi West 3.5 mph - N/A   Scattered Clouds
8:53 PM 30.0 °F - 26.1 °F 85% 30.39 in 10.0 mi Calm Calm - N/A   Scattered Clouds
9:53 PM 30.9 °F - 26.1 °F 82% 30.40 in 10.0 mi Calm Calm - N/A   Scattered Clouds
10:53 PM 27.0 °F 20.5 °F 24.1 °F 89% 30.41 in 10.0 mi SE 5.8 mph - N/A   Scattered Clouds
11:53 PM 26.1 °F - 23.0 °F 88% 30.43 in 10.0 mi Calm Calm - N/A   Scattered Clouds